STARLINK-37262

Last updated on Sun Apr 12 2026 00:02:09 GMT+0000 (Coordinated Universal Time)

1 68508U 26068A 26101.50002315 .00093267 00000+0 47204-3 0 9991 2 68508 53.1599 344.8991 0001256 65.0527 56.3880 15.80824134 3085
UTC large
Height (km)
Speed (km/s)
/
Latitude / Longitude
Inclination (degrees)
Orbital Period (minutes)
Azimuth
Elevation
Range (km)
Doppler Factor

Next 0 passes for location: London (51.5072 / 0.1276)

Sorry there are no passes over London.
STARLINK-37262